Regional Weather Roundup
Issued by NWS Charleston, SC

Home | Current Version | Previous Version | Text Only | Print | Product List | Glossary On
Versions: 1 2 3 4 5 6 7 8 9 10 11 12 13 14 15 16 17 18 19 20 21 22 23 24 25 26 27 28 29 30 31 32 33 34 35 36 37 38 39 40 41 42 43 44 45 46 47 48 49 50
000
ASUS42 KCHS 010927
RWRCHS
REGIONAL WEATHER ROUNDUP
NATIONAL WEATHER SERVICE CHARLESTON SC
500 AM EDT SAT AUG 01 2015

NOTE: "FAIR" INDICATES FEW OR NO CLOUDS BELOW 12,000 FEET WITH NO
SIGNIFICANT WEATHER AND/OR OBSTRUCTIONS TO VISIBILITY.

NOT ALL STATIONS ARE QUALITY CONTROLLED BY THE NATIONAL
WEATHER SERVICE. USE DATA WITH CAUTION...ESPECIALLY
DEWPOINT OBSERVATIONS.

SCZ027-030-031-034>040-042>050-011000-
...SOUTHEAST SOUTH CAROLINA...

CITY           SKY/WX    TMP DP  RH WIND       PRES   REMARKS
N CHARLESTON   PTCLDY    77  73  87 CALM      29.89F
WATERFRONT PRK   N/A     81  77  88 VRB3      29.87S
MOUNT PLEASANT LGT RAIN  77  77 100 CALM      29.89F
JOHNS ISLAND   PTSUNNY   79  77  94 CALM      29.90S THUNDER
PINOPOLIS      NOT AVBL
MONCKS CORNER  FAIR      75  73  94 CALM      29.90S FOG
SUMMERVILLE    FAIR      73  73 100 CALM      29.91S
BEAUFORT MCAS  PTCLDY    77  75  93 W3        29.91S
BEAUFORT ARPT  FAIR      77  77 100 CALM      29.90F
HILTON HEAD IS CLEAR     77  75  94 SW3       29.92S
WALTERBORO     SUNNY     75  73  94 CALM      29.91F
ALLENDALE      PTSUNNY   75  73  94 CALM      29.90F

...SOUTHERN MIDLANDS AND PEE DEE...

CITY           SKY/WX    TMP DP  RH WIND       PRES   REMARKS
GEORGETOWN     NOT AVBL
KINGSTREE      NOT AVBL
ORANGEBURG     MOCLDY    75  72  90 CALM      29.91F
BARNWELL       FAIR      75  73  94 CALM      29.91F
AIKEN          FAIR      72  70  94 CALM      29.95F
MANNING        HVY RAIN  73  72  94 CALM      29.90F
COLUMBIA       PTCLDY    77  71  82 CALM      29.90F
SUMTER         PTCLDY    76  71  86 CALM      29.89F
FLORENCE       CLEAR     74  71  91 CALM      29.90F
MYRTLE BEACH   PTCLDY    75  70  83 CALM      29.92R
N MYRTLE BEACH CLEAR     74  72  93 CALM      29.90S

$$

GAZ063-065-086>088-099>101-113>116-118-119-134>141-150-011000-
...SOUTHEAST GEORGIA...

CITY           SKY/WX    TMP DP  RH WIND       PRES   REMARKS
SAVANNAH ARPT  PTCLDY    75  73  94 CALM      29.91F
HUNTER AAF     PTCLDY    74  74 100 W3        29.89F
FORT STEWART   NOT AVBL
STATESBORO     FOG       73  32  22 CALM      29.91F VSB 1/2
SYLVANIA       SUNNY     73  73 100 CALM      29.92F
CLAXTON        NOT AVBL

...CSRA...CENTRAL AND FAR SOUTHEAST GEORGIA...

CITY           SKY/WX    TMP DP  RH WIND       PRES   REMARKS
THOMSON        CLEAR     74  74 100 CALM      29.96S
AUGUSTA-BUSH   CLEAR     73  72  96 S5        29.90F
AUGUSTA-DANIEL CLEAR     79  72  79 CALM      29.92S
SWAINSBORO     FAIR     N/A N/A N/A CALM      29.93F
VIDALIA        CLOUDY    73  72  94 CALM      29.92S FOG
EASTMAN        CLOUDY    74  74 100 CALM      29.95S FOG
HAZLEHURST     CLOUDY    76  76 100 CALM      29.91S
ALMA           CLOUDY    75  74  96 S5        29.92S
WAYCROSS       FOG       77  77 100 S3        29.92S VSB 1/2
JESUP          CLOUDY    75  73  94 CALM      29.93R FOG
BAXLEY         CLOUDY    75  73  94 CALM      29.92R
BRUNSWICK      CLOUDY    73  72  94 CALM      29.92F
SAINT SIMONS   MOCLDY    77  75  93 SW6       29.92S

$$

SCZ027-028-034-036>038-045-046-048>050-GAZ119-141-011000-
...LAKE AND SUPPLEMENTAL COASTAL OBSERVATIONS...

STATION/POSITION TIME  TEMP    WIND        PRES    WAVE   SWELL
                       AIR SEA DIR/SP/G            HT/PER HT/PER/DIR
                 (UTC) (F)     (DEG/KT/KT) (MB)    (FT/S) (FT/S/D)
UPR LAKE MARION  NOT AVBL
WINYAH BAY       0845   76     310/  2     1011.0F
LAKE MURRAY      0800   80      CALM  /  2 1012.5F
ACE BASIN NERRS  NOT AVBL
FORT PULASKI     0900   77 86  290/  8/  9 1013.3F
SAPELO ISLAND    0900   77     200/  4     1013.0S

$$

ANZ835-935-AMZ111-154-330-350-352-354-370-450-454-472-011000-
...C-MAN AND BUOY OBSERVATIONS...

STATION/POSITION TIME  TEMP    WIND        PRES    WAVE   SWELL
                       AIR SEA DIR/SP/G            HT/PER HT/PER/DIR
                 (UTC) (F)     (DEG/KT/KT) (MB)    (FT/S) (FT/S/D)
BUOY 41004       0850   81 84  220/ 14/ 16 1011.2F   4/ 7   3/ 7
BUOY 41008       0850   81 83  220/ 14/ 16 1012.9F   2/ 5   2/120/ 7
FOLLY BEACH CMAN 0900   79     310/  2/  3 1012.2F
CAPERS NEARSHORE 0808   83     260/  8/ 10 1012.7F
FRIPP NEARSHORE  0800   82     250/ 10/ 14 1012.4F


STATION/POSITION TIME  TEMP    WIND        PRES    WAVE   SWELL
                       AIR SEA DIR/SP/G            HT/PER HT/PER/DIR
                 (UTC) (F)     (DEG/KT/KT) (MB)    (FT/S) (FT/S/D)
5E ST. MARYS GA  0821      84                N/A     3/ 7
FRYING PAN BUOY  0850   79 84  310/ 10/ 14 1013.1R   5/ 7   5/150/ 7
BUOY 41025       0850   81 85  120/  4/  6 1012.6F   4/ 8   5/180/ 8
CAPE LOOKOUT NC  0900   80     310/  3/  4 1011.8F
BUOY 41002       0850   80 81  250/ 25/ 33 1015.3F   7/ 7   2/ 50/12
BUOY 41010       0820   82 84  180/ 12/ 14 1015.7F
ST AUGUSTINE FL  0900   77 81  180/ 10/ 11 1014.2F


$$



USA.gov is the U.S. government's official web portal to all federal, state and local government web resources and services.